| time (UTC) | temp C | wind direction | speed KPH | gust KPH | rain 1hr cm | rain 24hr cm | rain mn cm | humidity % | barometer mb |
| 20260506004405 | 0 | 55 | 0.0 | 0.0 | 0.00 | 1.32 | 0.00 | 93 | 1017.0 |
| 20260506002856 | 0 | 55 | 0.0 | 0.0 | 0.00 | 1.32 | 0.00 | 94 | 1017.2 |
| 20260505235904 | 0 | 55 | 0.0 | 0.0 | 0.00 | 1.32 | 0.00 | 93 | 1017.3 |
| 20260505232859 | 1 | 55 | 0.0 | 0.0 | 0.00 | 1.32 | 0.00 | 93 | 1017.6 |
| 20260505225906 | 2 | 55 | 0.0 | 0.0 | 0.00 | 1.32 | 0.00 | 93 | 1017.9 |
| 20260505224400 | 3 | 55 | 0.0 | 0.0 | 0.00 | 1.32 | 0.00 | 93 | 1017.8 |
| 20260505222852 | 3 | 55 | 0.0 | 3.2 | 0.00 | 1.32 | 0.00 | 93 | 1017.9 |
| 20260505215913 | 2 | 55 | 0.0 | 0.0 | 0.00 | 1.32 | 0.00 | 93 | 1018.2 |
| 20260505214402 | 2 | 55 | 0.0 | 0.0 | 0.00 | 1.32 | 1.32 | 93 | 1018.3 |
| 20260505212856 | 1 | 55 | 0.0 | 0.0 | 0.00 | 1.32 | 1.32 | 93 | 1018.3 |
| 20260505211353 | 1 | 55 | 0.0 | 0.0 | 0.00 | 1.32 | 1.32 | 93 | 1018.3 |
| 20260505204408 | 3 | 59 | 0.0 | 1.6 | 0.00 | 1.32 | 1.32 | 93 | 1018.2 |
| 20260505202858 | 3 | 59 | 0.0 | 3.2 | 0.00 | 1.32 | 1.32 | 93 | 1018.5 |
| 20260505195853 | 4 | 177 | 3.2 | 9.7 | 0.03 | 1.32 | 1.32 | 93 | 1018.5 |
| 20260505192906 | 4 | 58 | 0.0 | 1.6 | 0.03 | 1.32 | 1.32 | 93 | 1018.3 |
| 20260505185859 | 4 | 71 | 0.0 | 0.0 | 0.00 | 1.32 | 1.32 | 93 | 1018.0 |
| 20260505184352 | 4 | 71 | 0.0 | 0.0 | 0.00 | 1.32 | 1.32 | 93 | 1017.8 |
| 20260505181404 | 4 | 71 | 0.0 | 3.2 | 0.00 | 1.32 | 1.32 | 93 | 1017.5 |
| 20260505174403 | 4 | 76 | 0.0 | 3.2 | 0.03 | 1.32 | 1.32 | 93 | 1017.4 |
| 20260505172900 | 4 | 71 | 0.0 | 6.4 | 0.03 | 1.32 | 1.32 | 93 | 1017.5 |
| 20260505171355 | 4 | 84 | 0.0 | 6.4 | 0.03 | 1.32 | 1.32 | 93 | 1017.4 |
| 20260505164405 | 4 | 221 | 0.0 | 1.6 | 0.05 | 1.30 | 1.30 | 93 | 1017.4 |
| 20260505162853 | 4 | 205 | 0.0 | 3.2 | 0.05 | 1.30 | 1.30 | 93 | 1017.3 |
| 20260505151405 | 4 | 23 | 0.0 | 3.2 | 0.00 | 1.27 | 1.27 | 93 | 1017.6 |
| 20260505122906 | 3 | 103 | 0.0 | 6.4 | 0.15 | 1.17 | 1.17 | 93 | 1017.5 |
| 20260505121400 | 3 | 207 | 0.0 | 6.4 | 0.13 | 1.14 | 1.14 | 93 | 1017.5 |
| 20260505115855 | 3 | 239 | 0.0 | 6.4 | 0.08 | 1.09 | 1.09 | 93 | 1017.4 |
| 20260505114351 | 3 | 193 | 1.6 | 8.0 | 0.05 | 1.07 | 1.07 | 93 | 1017.4 |
| 20260505111401 | 3 | 23 | 1.6 | 6.4 | 0.33 | 1.02 | 1.02 | 93 | 1017.3 |
| 20260505100039 | 3 | 202 | 8.0 | 12.9 | 0.33 | 0.43 | 0.43 | 93 | 1017.0 |
| 20260505094358 | 3 | 248 | 0.0 | 9.7 | 0.20 | 0.28 | 0.28 | 93 | 1016.9 |
| 20260505092856 | 3 | 187 | 0.0 | 8.0 | 0.13 | 0.18 | 0.18 | 93 | 1016.9 |
| 20260505085907 | 3 | 263 | 1.6 | 14.5 | 0.05 | 0.10 | 0.10 | 93 | 1017.1 |
| 20260505084402 | 3 | 228 | 4.8 | 16.1 | 0.05 | 0.08 | 0.08 | 93 | 1017.0 |
| 20260505082858 | 3 | 308 | 1.6 | 11.3 | 0.05 | 0.05 | 0.05 | 93 | 1017.1 |
| 20260505081355 | 3 | 271 | 4.8 | 11.3 | 0.05 | 0.05 | 0.05 | 94 | 1017.1 |
| 20260505075238 | 3 | 342 | 3.2 | 12.9 | 0.05 | 0.05 | 0.05 | 94 | 1017.1 |
| 20260505072859 | 4 | 34 | 0.0 | 6.4 | 0.03 | 0.03 | 0.03 | 94 | 1017.2 |
| 20260505071356 | 4 | 261 | 3.2 | 11.3 | 0.00 | 0.00 | 0.00 | 94 | 1017.1 |
| 20260505064407 | 5 | 225 | 1.6 | 9.7 | 0.00 | 0.00 | 0.00 | 92 | 1017.1 |
| 20260505062900 | 5 | 5 | 0.0 | 8.0 | 0.00 | 0.00 | 0.00 | 91 | 1017.3 |
| 20260505061357 | 5 | 250 | 0.0 | 8.0 | 0.00 | 0.00 | 0.00 | 89 | 1017.2 |
| 20260505055852 | 5 | 254 | 3.2 | 9.7 | 0.00 | 0.00 | 0.00 | 88 | 1017.5 |
| 20260505053113 | 5 | 267 | 1.6 | 6.4 | 0.00 | 0.00 | 0.00 | 91 | 1017.6 |
| 20260505051353 | 5 | 261 | 3.2 | 8.0 | 0.00 | 0.00 | 0.00 | 91 | 1017.6 |
| 20260505041342 | 3 | 258 | 1.6 | 8.0 | 0.00 | 0.00 | 0.00 | 93 | 1018.3 |
| 20260505035835 | -1 | 289 | 0.0 | 3.2 | 0.00 | 0.00 | 0.00 | 93 | 1018.4 |
| 20260505034334 | -2 | 290 | 0.0 | 0.0 | 0.00 | 0.00 | 0.00 | 93 | 1018.6 |
| 20260505031351 | -3 | 290 | 0.0 | 0.0 | 0.00 | 0.00 | 0.00 | 94 | 1018.8 |
| 20260505025845 | -4 | 290 | 0.0 | 0.0 | 0.00 | 0.00 | 0.00 | 94 | 1018.9 |
| 20260505022850 | -4 | 290 | 0.0 | 0.0 | 0.00 | 0.00 | 0.00 | 94 | 1019.1 |
| 20260505021343 | -4 | 290 | 0.0 | 0.0 | 0.00 | 0.00 | 0.00 | 94 | 1019.2 |
| 20260505015835 | -5 | 290 | 0.0 | 0.0 | 0.00 | 0.00 | 0.00 | 94 | 1019.2 |
| 20260505011432 | -5 | 290 | 0.0 | 0.0 | 0.00 | 0.00 | 0.00 | 93 | 1019.6 |